Regional Weather Roundup
Issued by NWS

Home | Current Version | Previous Version | Graphics & Text | Print | Product List | Glossary On
Versions: 1 2 3 4 5 6 7 8 9 10 11 12 13 14 15 16 17 18 19 20 21 22 23 24 25 26 27 28 29 30 31 32 33 34 35 36 37 38 39 40 41 42 43 44 45 46 47 48 49 50
000
ASUS45 KCYS 221910
RWRWY

WYOMING REGIONAL WEATHER ROUNDUP
NATIONAL WEATHER SERVICE CHEYENNE WY
100 PM MDT MON SEP 22 2014

NOTE:  "FAIR" INDICATES FEW OR NO CLOUDS BELOW 12,000 FEET
WITH NO SIGNIFICANT WEATHER AND/OR OBSTRUCTIONS TO VISIBILITY.

WYZ001-222000-
YELLOWSTONE NATIONAL PARK

CITY           SKY/WX    TMP DP  RH WIND       PRES   REMARKS
LK YELLOWSTONE   N/A     50  46  86 CALM      30.29R
W YELLOWSTONE  NOT AVBL

$$
WYZ002>013-054>058-071-098>099-222000-
NORTHERN WYOMING

CITY           SKY/WX    TMP DP  RH WIND       PRES   REMARKS
JACKSON        CLOUDY    59  54  82 S9        30.22F
CODY           PTSUNNY   73  43  33 W14G21    30.04S
GREYBULL       PTSUNNY   76  46  34 SE5       29.98F
WORLAND        CLOUDY    75  48  38 N7        30.00F
SHERIDAN       PTSUNNY   76  47  35 NW3       29.96F
BUFFALO        MOSUNNY   75  46  35 N12       30.01S
GILLETTE       MOSUNNY   81  48  31 S16G26    29.96F
HULETT         FAIR      79  46  31 MISG      30.01
NEWCASTLE      FAIR      73  41  31 MISG      30.04

$$
WYZ014>020-022>026-101>103-222000-
CENTRAL WYOMING

CITY           SKY/WX    TMP DP  RH WIND       PRES   REMARKS
BIG PINEY      PTSUNNY   61  48  62 SW10      30.26F
PINEDALE       MOCLDY    54  45  71 CALM      30.28F
DUBOIS         CLOUDY    59  41  51 NW12G21   30.21S
LANDER         CLOUDY    70  47  43 N3        30.10F
RIVERTON       LGT RAIN  61  50  67 SW7       30.12F
CASPER         CLOUDY    66  48  52 SW18G28   30.12S
DOUGLAS        TSTM      69  53  56 S6        30.09S

$$
WYZ021-027>030-104>119-222000-
SOUTHERN WYOMING

CITY           SKY/WX    TMP DP  RH WIND       PRES   REMARKS
EVANSTON       SUNNY     64  41  42 SW15      30.28S
KEMMERER       CLOUDY    57  46  67 W10       30.28F
FORT BRIDGER   FAIR      66  46  46 W16G23    30.30S
ROCK SPRINGS   PTSUNNY   60  50  69 NW6       30.26F
DIXON          MOCLDY    66  48  51 SW15      30.28F
RAWLINS        PTSUNNY   64  44  48 W17G26    30.24F
SARATOGA       FAIR      57  50  77 SE7       30.28F
LARAMIE        LGT RAIN  53  48  83 W10       30.28F
CHEYENNE       LGT RAIN  61  50  67 W26G33    30.23R
TORRINGTON     PTSUNNY   74  54  49 SE13      30.05F
PINE BLUFFS    FAIR      73  50  43 S7        30.14F

$$


USA.gov is the U.S. government's official web portal to all federal, state and local government web resources and services.